Weather Roundup
Issued by NWS Springfield, MO

Home | Current Version | Previous Version | Text Only | Print | Product List | Glossary On
Versions: 1 2 3 4 5 6 7 8 9 10 11 12 13 14 15 16 17 18 19 20 21 22 23 24 25 26 27 28 29 30 31 32 33 34 35 36 37 38 39 40 41 42 43 44 45 46 47 48 49 50
169
NZUS99 KSGF 280707
HRRSGF

HOURLY WEATHER
NATIONAL WEATHER SERVICE SPRINGFIELD MO
200 AM CDT WED SEP 28 2016

......SGF CWA......

CITY           SKY/WX    TMP DP  RH WIND       PRES   REMARKS
SPRINGFIELD    CLEAR     62  47  57 SW10      29.93S
JOPLIN         CLEAR     65  50  58 SW13      29.94F
WEST PLAINS    CLEAR     57  49  74 SW6       29.95F
ROLLA          CLEAR     58  51  78 SW10      29.86F
OSAGE BEACH    CLEAR     64  51  62 SW7       29.88F
BRANSON        PTCLDY    63  46  55 SW8       29.97S

......SURROUNDING SGF CWA......

CITY           SKY/WX    TMP DP  RH WIND       PRES   REMARKS
CHANUTE        CLEAR     60  54  80 SW8       29.90F
PARSONS        CLEAR     53  52  96 CALM      29.93F
COFFEYVILLE    CLEAR     60  52  74 S6        29.93F
EMPORIA        CLEAR     65  55  70 SW10      29.89F
GROVE OK       CLEAR     63  52  67 CALM      29.96F
ROGERS AR      CLEAR     59  47  64 SW6       29.99S
SILOAM SPRINGS CLEAR     59  41  51 S6        30.00S
HARRISON AR    CLEAR     65  45  48 W6        29.97F
NEAR YELLVILLE CLEAR     61  48  63 CALM      29.93S

......KANSAS AND MISSOURI......

CITY           SKY/WX    TMP DP  RH WIND       PRES   REMARKS
KANSAS CTY INT CLEAR     60  53  77 SW7       29.86S
DOWNTOWN KC    CLEAR     61  56  83 S5        29.86S
COLUMBIA       CLEAR     61  55  81 W8        29.85S
SEDALIA        CLEAR     63  55  75 SW8       29.86S
ST JOSEPH      CLEAR     53  51  93 N5        29.87S
ST LOUIS       PTCLDY    65  53  65 SW10      29.82F
SPIRIT OF STL  CLOUDY    64  55  72 SW8       29.81F
KIRKSVILLE     CLEAR     53  47  79 W7        29.83R
WICHITA        CLEAR     61  55  81 SW8       29.92F
TOPEKA         CLEAR     57  55  93 CALM      29.88R
OLATHE         CLEAR     64  54  69 W6        29.87F

......TENNESSEE......

CITY           SKY/WX    TMP DP  RH WIND       PRES   REMARKS
MEMPHIS        PTCLDY    60  50  69 CALM      29.95S
NASHVILLE      CLEAR     55  48  77 CALM      29.95S

......ARKANSAS.......

CITY           SKY/WX    TMP DP  RH WIND       PRES   REMARKS
FAYETTEVILLE   CLEAR     52  50  93 S8        29.99F
FT SMITH       CLEAR     57  50  77 SW5       29.98S
LITTLE ROCK    CLEAR     59  53  80 W6        29.97S

......OKLAHOMA.......

CITY           SKY/WX    TMP DP  RH WIND       PRES   REMARKS
TULSA          CLEAR     69  49  48 SW6       29.94F
PONCA CITY     CLEAR     62  50  64 SW3       29.95S
MCALESTER      CLEAR     53  48  83 CALM      30.01S
OKLAHOMA CITY  CLEAR     57  49  74 SW6       30.00F

......IOWA............

CITY           SKY/WX    TMP DP  RH WIND       PRES   REMARKS
DES MOINES     MOCLDY    59  40  49 N7        29.88R
QUAD CITIES    CLOUDY    56  47  71 E6        29.80R

......ILLINOIS........

CITY           SKY/WX    TMP DP  RH WIND       PRES   REMARKS
QUINCY         CLEAR     58  51  78 SW6       29.79S
CHICAGO        CLOUDY    54  45  71 NE9       29.77F




USA.gov is the U.S. government's official web portal to all federal, state and local government web resources and services.